Flag for U.S.A. Weather past 2 weeks in Salem, Oregon, U.S.A.

Now
63 °F

Sunny.


Feels Like: 63 °F
Forecast: 42 / 71 °F
Wind: 10 mph from Northwest

Location: McNary Field

Current Time: Apr 17, 2015 at 8:47:59 PM

Latest Report: Apr 17, 2015 at 7:56 PM


Visibility: 10 mi

Pressure: 30.16 "Hg

Humidity: 50%

Dew point: 44 °F

Location of SalemLocation

Historic Weather in Salem — Graph

°F

Salem temperature yesterday

Maximum temperature yesterday: 71 °F (at 4:56 PM)
Minimum temperature yesterday: 36 °F (at 5:56 AM)
Average temperature yesterday: 54 °F

Past Weeks' High & Low Weather Summary

 TemperatureHumidityPressure
High73 °F (Apr 17, 3:56 PM)100% (Apr 4, 5:56 AM)30.56 "Hg (Apr 4, 5:56 AM)
Low34 °F (Apr 5, 6:56 AM)32% (Apr 16, 4:56 PM)29.67 "Hg (Apr 5, 3:56 PM)
Average48 °F74%30.08 "Hg
* Reported Apr 2 6:56 PM — Apr 17 6:56 PM, Salem, Weather by CustomWeather, © 2015

Note: Actual official high and low records may vary slightly from our data, if they occured in-between our weather recording intervals... More about our weather records

Advertising

Salem weather history for previous 24 hours

 ConditionsComfort  
Time TempWeatherWind HumidityBarometerVisibility
6:56 PM
Fri, Apr 17
70 °FSunny.10 mph46%30.15 "Hg10 mi
5:56 PM72 °FSunny.8 mph44%30.15 "Hg10 mi
4:56 PM73 °FSunny.12 mph43%30.15 "Hg10 mi
3:56 PM73 °FSunny.7 mph41%30.16 "Hg10 mi
2:56 PM72 °FSunny.6 mph41%30.17 "Hg10 mi
1:56 PM69 °FSunny.3 mph44%30.19 "Hg10 mi
12:56 PM66 °FSunny.9 mph49%30.21 "Hg10 mi
11:56 AM64 °FSunny.9 mph50%30.23 "Hg10 mi
10:56 AM60 °FSunny.3 mph53%30.22 "Hg10 mi
9:56 AM59 °FSunny.5 mph51%30.22 "Hg10 mi
8:56 AM56 °FSunny.3 mph60%30.21 "Hg10 mi
7:56 AM49 °FSunny.3 mph80%30.20 "Hg10 mi
6:56 AM42 °FClear.No wind89%30.19 "Hg10 mi
5:56 AM41 °FClear.5 mph89%30.17 "Hg10 mi
4:56 AM43 °FClear.3 mph86%30.16 "Hg10 mi
3:56 AM44 °FClear.3 mph85%30.15 "Hg10 mi
2:56 AM47 °FClear.No wind77%30.16 "Hg10 mi
1:56 AM48 °FClear.No wind77%30.16 "Hg10 mi
12:56 AM50 °FClear.No wind74%30.15 "Hg10 mi
11:56 PM
Thu, Apr 16
50 °FClear.No wind77%30.14 "Hg10 mi
10:56 PM53 °FClear.3 mph69%30.13 "Hg10 mi
9:56 PM55 °FClear.No wind64%30.12 "Hg10 mi
8:56 PM62 °FSunny.5 mph48%30.11 "Hg10 mi
Weather by CustomWeather, © 2015

See weather overviewHow to use our weather pages